• In Belarus
  • List of Countries
  • For 7 days
  • Water Temperature
  • Weather Map
  • Weather Widgets
  • user-avatar
    Login

    Hourly Weather Yulara

    Today, 2 June, Tuesday

    Time Temperature Precipitation Wind Pressure Humidity
    00:00 +9°C° 0 mm 5 mps 724 mmHg 70%
    01:00 +9°C° 0 mm 5 mps 724 mmHg 75%
    02:00 +8°C° 0 mm 4 mps 724 mmHg 81%
    03:00 +7°C° 0 mm 4 mps 723 mmHg 86%
    04:00 +7°C° 0 mm 4 mps 724 mmHg 87%
    05:00 +8°C° 0 mm 3 mps 724 mmHg 87%
    06:00 +8°C° 0 mm 3 mps 724 mmHg 88%
    07:00 +8°C° 0 mm 4 mps 725 mmHg 81%
    08:00 +10°C° 0 mm 5 mps 725 mmHg 73%
    09:00 +11°C° 0 mm 6 mps 725 mmHg 65%
    10:00 +14°C° 0 mm 6 mps 725 mmHg 58%
    11:00 +16°C° 0 mm 6 mps 725 mmHg 50%
    12:00 +19°C° 0 mm 6 mps 725 mmHg 42%
    13:00 +20°C° 0 mm 6 mps 724 mmHg 39%
    14:00 +20°C° 0 mm 6 mps 724 mmHg 35%
    15:00 +21°C° 0 mm 6 mps 723 mmHg 32%
    16:00 +19°C° 0 mm 5 mps 724 mmHg 36%
    17:00 +17°C° 0 mm 5 mps 724 mmHg 39%
    18:00 +15°C° 0 mm 4 mps 724 mmHg 43%
    19:00 +14°C° 0 mm 4 mps 724 mmHg 46%
    20:00 +12°C° 0 mm 4 mps 725 mmHg 49%
    21:00 +11°C° 0 mm 4 mps 725 mmHg 52%
    22:00 +11°C° 0 mm 4 mps 725 mmHg 53%
    23:00 +10°C° 0 mm 4 mps 725 mmHg 55%

    Tomorrow, 3 June, Wednesday

    Time Temperature Precipitation Wind Pressure Humidity
    00:00 +10°C° 0 mm 4 mps 725 mmHg 56%
    01:00 +8°C° 0 mm 4 mps 725 mmHg 59%
    02:00 +7°C° 0 mm 4 mps 725 mmHg 62%
    03:00 +7°C° 0 mm 4 mps 725 mmHg 65%
    04:00 +7°C° 0 mm 4 mps 725 mmHg 67%
    05:00 +6°C° 0 mm 4 mps 726 mmHg 70%
    06:00 +6°C° 0 mm 4 mps 726 mmHg 72%
    07:00 +8°C° 0 mm 5 mps 726 mmHg 66%
    08:00 +9°C° 0 mm 6 mps 726 mmHg 59%
    09:00 +11°C° 0 mm 7 mps 727 mmHg 52%
    10:00 +14°C° 0 mm 7 mps 727 mmHg 47%
    11:00 +15°C° 0 mm 7 mps 726 mmHg 42%
    12:00 +17°C° 0 mm 7 mps 726 mmHg 37%
    13:00 +18°C° 0 mm 7 mps 725 mmHg 35%
    14:00 +19°C° 0 mm 6 mps 725 mmHg 33%
    15:00 +20°C° 0 mm 6 mps 724 mmHg 32%
    16:00 +17°C° 0 mm 5 mps 724 mmHg 36%
    17:00 +16°C° 0 mm 5 mps 724 mmHg 40%
    18:00 +14°C° 0 mm 4 mps 725 mmHg 45%
    19:00 +13°C° 0 mm 4 mps 725 mmHg 50%
    20:00 +12°C° 0 mm 3 mps 725 mmHg 55%
    21:00 +10°C° 0 mm 3 mps 725 mmHg 60%
    22:00 +10°C° 0 mm 3 mps 725 mmHg 63%
    23:00 +9°C° 0 mm 3 mps 725 mmHg 66%

    Day after tomorrow, 4 June, Thursday

    Time Temperature Precipitation Wind Pressure Humidity
    00:00 +8°C° 0 mm 4 mps 725 mmHg 69%
    01:00 +7°C° 0 mm 4 mps 725 mmHg 71%
    02:00 +7°C° 0 mm 4 mps 725 mmHg 74%
    03:00 +6°C° 0 mm 4 mps 724 mmHg 77%
    04:00 +6°C° 0 mm 4 mps 725 mmHg 79%
    05:00 +6°C° 0 mm 4 mps 725 mmHg 80%
    06:00 +5°C° 0 mm 4 mps 725 mmHg 82%
    07:00 +7°C° 0 mm 5 mps 725 mmHg 74%
    08:00 +9°C° 0 mm 6 mps 726 mmHg 65%
    09:00 +10°C° 0 mm 7 mps 726 mmHg 57%
    10:00 +12°C° 0 mm 7 mps 726 mmHg 49%
    11:00 +15°C° 0 mm 7 mps 725 mmHg 42%
    12:00 +17°C° 0 mm 7 mps 725 mmHg 34%
    13:00 +19°C° 0 mm 6 mps 725 mmHg 31%
    14:00 +20°C° 0 mm 6 mps 724 mmHg 29%
    15:00 +21°C° 0 mm 6 mps 723 mmHg 26%
    16:00 +19°C° 0 mm 5 mps 723 mmHg 31%
    17:00 +17°C° 0 mm 4 mps 723 mmHg 35%
    18:00 +13°C° 0 mm 3 mps 723 mmHg 40%
    19:00 +12°C° 0 mm 4 mps 724 mmHg 44%
    20:00 +12°C° 0 mm 4 mps 724 mmHg 47%
    21:00 +11°C° 0 mm 4 mps 724 mmHg 51%
    22:00 +10°C° 0 mm 4 mps 724 mmHg 56%
    23:00 +8°C° 0 mm 4 mps 724 mmHg 61%

    5 June, Friday

    Time Temperature Precipitation Wind Pressure Humidity
    00:00 +7°C° 0 mm 4 mps 724 mmHg 66%
    01:00 +7°C° 0 mm 4 mps 724 mmHg 70%
    02:00 +6°C° 0 mm 4 mps 724 mmHg 75%
    03:00 +6°C° 0 mm 4 mps 723 mmHg 79%
    04:00 +6°C° 0 mm 4 mps 724 mmHg 81%
    05:00 +5°C° 0 mm 4 mps 724 mmHg 83%
    06:00 +5°C° 0 mm 3 mps 724 mmHg 85%
    07:00 +7°C° 0 mm 4 mps 724 mmHg 77%
    08:00 +8°C° 0 mm 4 mps 725 mmHg 69%
    09:00 +11°C° 0 mm 4 mps 725 mmHg 61%
    10:00 +13°C° 0 mm 4 mps 725 mmHg 52%
    11:00 +15°C° 0 mm 4 mps 724 mmHg 43%
    12:00 +18°C° 0 mm 4 mps 724 mmHg 35%
    13:00 +19°C° 0 mm 4 mps 723 mmHg 31%
    14:00 +20°C° 0 mm 4 mps 723 mmHg 28%
    15:00 +21°C° 0 mm 4 mps 722 mmHg 24%
    16:00 +19°C° 0 mm 4 mps 722 mmHg 27%
    17:00 +16°C° 0 mm 3 mps 722 mmHg 31%
    18:00 +13°C° 0 mm 3 mps 722 mmHg 34%
    19:00 +12°C° 0 mm 3 mps 722 mmHg 36%
    20:00 +11°C° 0 mm 3 mps 722 mmHg 38%
    21:00 +10°C° 0 mm 4 mps 723 mmHg 40%
    22:00 +8°C° 0 mm 4 mps 723 mmHg 42%
    23:00 +8°C° 0 mm 4 mps 723 mmHg 44%

    6 June, Saturday

    Time Temperature Precipitation Wind Pressure Humidity
    00:00 +7°C° 0 mm 4 mps 723 mmHg 46%
    01:00 +6°C° 0 mm 4 mps 723 mmHg 48%
    02:00 +6°C° 0 mm 4 mps 722 mmHg 51%
    03:00 +5°C° 0 mm 3 mps 722 mmHg 53%
    04:00 +5°C° 0 mm 3 mps 722 mmHg 55%
    05:00 +4°C° 0 mm 3 mps 722 mmHg 57%
    06:00 +4°C° 0 mm 3 mps 722 mmHg 59%
    07:00 +6°C° 0 mm 4 mps 723 mmHg 53%
    08:00 +8°C° 0 mm 4 mps 723 mmHg 46%
    09:00 +11°C° 0 mm 4 mps 723 mmHg 40%
    10:00 +13°C° 0 mm 4 mps 723 mmHg 34%
    11:00 +15°C° 0 mm 4 mps 723 mmHg 28%
    12:00 +17°C° 0 mm 5 mps 722 mmHg 23%
    13:00 +19°C° 0 mm 5 mps 722 mmHg 20%
    14:00 +20°C° 0 mm 5 mps 721 mmHg 18%
    15:00 +21°C° 0 mm 5 mps 721 mmHg 16%
    16:00 +19°C° 0 mm 5 mps 721 mmHg 19%
    17:00 +17°C° 0 mm 4 mps 721 mmHg 21%
    18:00 +14°C° 0 mm 4 mps 721 mmHg 24%
    19:00 +13°C° 0 mm 4 mps 722 mmHg 26%
    20:00 +12°C° 0 mm 4 mps 722 mmHg 29%
    21:00 +10°C° 0 mm 5 mps 722 mmHg 32%
    22:00 +9°C° 0 mm 5 mps 722 mmHg 35%
    23:00 +8°C° 0 mm 4 mps 722 mmHg 39%

    7 June, Sunday

    Time Temperature Precipitation Wind Pressure Humidity
    00:00 +7°C° 0 mm 4 mps 723 mmHg 42%
    01:00 +6°C° 0 mm 4 mps 722 mmHg 44%
    02:00 +6°C° 0 mm 4 mps 722 mmHg 46%
    03:00 +6°C° 0 mm 4 mps 722 mmHg 47%
    04:00 +5°C° 0 mm 4 mps 722 mmHg 49%
    05:00 +5°C° 0 mm 4 mps 722 mmHg 50%
    06:00 +5°C° 0 mm 4 mps 723 mmHg 51%
    07:00 +6°C° 0 mm 4 mps 723 mmHg 47%
    08:00 +8°C° 0 mm 5 mps 723 mmHg 42%
    09:00 +10°C° 0 mm 5 mps 723 mmHg 38%
    10:00 +13°C° 0 mm 5 mps 723 mmHg 32%
    11:00 +15°C° 0 mm 6 mps 723 mmHg 27%
    12:00 +19°C° 0 mm 6 mps 722 mmHg 22%
    13:00 +19°C° 0 mm 6 mps 722 mmHg 20%
    14:00 +20°C° 0 mm 6 mps 721 mmHg 18%
    15:00 +21°C° 0 mm 6 mps 721 mmHg 16%
    16:00 +19°C° 0 mm 5 mps 721 mmHg 19%
    17:00 +15°C° 0 mm 5 mps 721 mmHg 22%
    18:00 +13°C° 0 mm 4 mps 721 mmHg 25%
    19:00 +12°C° 0 mm 4 mps 721 mmHg 26%
    20:00 +12°C° 0 mm 4 mps 722 mmHg 27%
    21:00 +11°C° 0 mm 4 mps 722 mmHg 28%
    22:00 +10°C° 0 mm 4 mps 722 mmHg 31%
    23:00 +8°C° 0 mm 4 mps 722 mmHg 33%
    Show more